Regional Weather Roundup
Issued by NWS

Home | Current Version | Previous Version | Graphics & Text | Print | Product List | Glossary On
Versions: 1 2 3 4 5 6 7 8 9 10 11 12 13 14 15 16 17 18 19 20 21 22 23 24 25 26 27 28 29 30 31 32 33 34 35 36 37 38 39 40 41 42 43 44 45 46 47 48 49 50
000
ASUS45 KCYS 030610
RWRWY

WYOMING REGIONAL WEATHER ROUNDUP
NATIONAL WEATHER SERVICE CHEYENNE WY
1200 AM MDT WED JUN 03 2015

NOTE:  "FAIR" INDICATES FEW OR NO CLOUDS BELOW 12,000 FEET
WITH NO SIGNIFICANT WEATHER AND/OR OBSTRUCTIONS TO VISIBILITY.

WYZ001-030700-
YELLOWSTONE NATIONAL PARK

CITY           SKY/WX    TMP DP  RH WIND       PRES   REMARKS
LK YELLOWSTONE   N/A     37  33  85 CALM      30.14F
6HR MIN TEMP:  37; 6HR MAX TEMP:  57;

W YELLOWSTONE  NOT AVBL

$$
WYZ002>013-054>058-071-098>099-030700-
NORTHERN WYOMING

CITY           SKY/WX    TMP DP  RH WIND       PRES   REMARKS
JACKSON        FAIR      48  39  71 E8        30.07S
CODY           MOCLDY    55  46  71 NW9       30.03S
GREYBULL       MOCLDY    63  50  62 N17       29.92S
6HR MIN TEMP:  60; 6HR MAX TEMP:  71; 6HR PCP:  0.02;

WORLAND        FAIR      55  50  83 CALM      29.94R
6HR MIN TEMP:  54; 6HR MAX TEMP:  72; 6HR PCP:  0.04;

SHERIDAN       MOCLDY    53  49  86 NW3       30.03R
6HR MIN TEMP:  51; 6HR MAX TEMP:  59;

BUFFALO        MOCLDY    50  45  83 CALM      30.05R
6HR MIN TEMP:  49; 6HR MAX TEMP:  70;

GILLETTE       FAIR      50  48  93 NW5       29.98R
6HR MIN TEMP:  49; 6HR MAX TEMP:  71; 6HR PCP:  0.14;

HULETT         FAIR      54  50  87 CALM      29.97S
NEWCASTLE      FAIR      52  45  76 CALM      29.97R

$$
WYZ014>020-022>026-101>103-030700-
CENTRAL WYOMING

CITY           SKY/WX    TMP DP  RH WIND       PRES   REMARKS
BIG PINEY      FAIR      47  39  74 NW8       30.10R
6HR MIN TEMP:  45; 6HR MAX TEMP:  70;

PINEDALE       FAIR      46  37  71 CALM      30.11R
DUBOIS         FAIR      46  34  61 W10       30.10S
LANDER         FAIR      55  39  54 W5        29.98R
6HR MIN TEMP:  55; 6HR MAX TEMP:  75;

RIVERTON       FAIR      57  44  62 N5        29.99R
6HR MIN TEMP:  56; 6HR MAX TEMP:  75;

CASPER         FAIR      48  45  89 N8        30.03R
6HR MIN TEMP:  48; 6HR MAX TEMP:  79;

DOUGLAS        FAIR      57  51  80 MISG      29.98R
6HR MIN TEMP:  57; 6HR MAX TEMP:  80;


$$
WYZ021-027>030-104>119-030700-
SOUTHERN WYOMING

CITY           SKY/WX    TMP DP  RH WIND       PRES   REMARKS
EVANSTON       FAIR      58  36  43 CALM      30.09F
6HR MIN TEMP:  55; 6HR MAX TEMP:  69;

KEMMERER       FAIR      50  39  66 N10       30.12S
FORT BRIDGER   CLEAR     55  37  50 W9        30.11F
ROCK SPRINGS   FAIR      57  31  37 W7        30.08S
6HR MIN TEMP:  56; 6HR MAX TEMP:  74;

DIXON          FAIR      49  38  64 SE5       30.09S
RAWLINS        FAIR      56  34  43 NW13      30.07R
6HR MIN TEMP:  54; 6HR MAX TEMP:  75;

SARATOGA       FAIR      48  32  53 S6        30.09S
LARAMIE        FAIR      49  34  56 W8        30.07F
6HR MIN TEMP:  47; 6HR MAX TEMP:  74;

CHEYENNE       FAIR      56  48  74 NW6       29.99S
6HR MIN TEMP:  54; 6HR MAX TEMP:  79;

TORRINGTON     FAIR      56  48  74 N12       29.93R
6HR MIN TEMP:  55; 6HR MAX TEMP:  76;

PINE BLUFFS    FAIR      54  52  94 CALM      29.94S

$$



USA.gov is the U.S. government's official web portal to all federal, state and local government web resources and services.